Regional Weather Roundup
Issued by NWS

Home | Current Version | Previous Version | Text Only | Print | Product List | Glossary Off
Versions: 1 2 3 4 5 6 7 8 9 10 11 12 13 14 15 16 17 18 19 20 21 22 23 24 25 26 27 28 29 30 31 32 33 34 35 36 37 38 39 40 41 42 43 44 45 46 47 48 49 50

000
ASUS43 KLMK 210702
RWRKY
KENTUCKY REGIONAL WEATHER ROUNDUP
NATIONAL WEATHER SERVICE LOUISVILLE KY
300 AM EDT MON APR 21 2014

NOTE "FAIR" INDICATES FEW OR NO CLOUDS BELOW 12,000 FEET
WITH NO SIGNIFICANT WEATHER AND/OR OBSTRUCTIONS TO VISIBILITY.

KYZ001>023-026-027-061>063-070>075-210800-
WESTERN AND SOUTH CENTRAL KENTUCKY

CITY           SKY/WX    TMP DP  RH WIND       PRES   REMARKS
PADUCAH        MOCLDY    58  49  72 CALM      30.06F
HENDERSON      MOCLDY    54  48  82 CALM      30.07F
OWENSBORO      PTCLDY    54  49  83 CALM      30.08F
HOPKINSVILLE   PTCLDY    55  48  76 CALM      30.09S
BOWLING GREEN  CLEAR     51  45  79 CALM      30.10F
GLASGOW        NOT AVBL
$$

KYZ024-025-028>034-038-045-046-053-210800-
NORTH CENTRAL KENTUCKY

CITY           SKY/WX    TMP DP  RH WIND       PRES   REMARKS
LOUISVILLE/SDF PTCLDY    59  46  62 CALM      30.07F
LOUISVILLE/LOU PTCLDY    57  46  66 CALM      30.08F
FORT KNOX      PTCLDY    51  43  73 CALM      30.08S
$$

KYZ035>037-039>044-047>052-055>060-089>105-210800-
NORTHEAST KENTUCKY

CITY           SKY/WX    TMP DP  RH WIND       PRES   REMARKS
LEXINGTON      PTCLDY    55  43  63 SE6       30.09F
COVINGTON      MOCLDY    53  43  68 CALM      30.08F
FRANKFORT      PTCLDY    49  43  80 CALM      30.08F
$$

KYZ054-064>069-076>088-106>120-210800-
SOUTHEAST KENTUCKY

CITY           SKY/WX    TMP DP  RH WIND       PRES   REMARKS
JACKSON        CLEAR     59  30  33 S5        30.10F
LONDON         PTCLDY    52  45  77 CALM      30.11F
SOMERSET       NOT AVBL
MIDDLESBORO    NOT AVBL
MONTICELLO     MOSUNNY   47  42  82 CALM      30.12F
$$




USA.gov is the U.S. government's official web portal to all federal, state and local government web resources and services.